Orbital Elements at Epoch 2459200.5 (2020-Dec-17.0) TDB
Reference: JPL 16 (heliocentric ecliptic J2000)
Element | Value | Uncertainty (1-sigma) | Units |
e | .0957504664031265 | 5.4103e-08 | |
a | 2.734527526829495 | 1.5536e-08 | au |
q | 2.472695240743383 | 1.5418e-07 | au |
i | 2.866223102815672 | 5.3187e-06 | deg |
node | 342.2440187107537 | 7.2166e-05 | deg |
peri | 6.844755198095219 | 7.5329e-05 | deg |
M | 6.981163345308546 | 1.9754e-05 | deg |
tp | 2459168.470720070786 (2020-Nov-14.97072007) | 9.0685e-05 | TDB |
period | 1651.664658765773 4.52 | 1.4076e-05 3.854e-08 | d yr |
n | .2179619198663575 | 1.8575e-09 | deg/d |
Q | 2.996359812915607 | 1.7024e-08 | au |
|
| | Orbit Determination Parameters
Additional Information
|